Location: Observatoires du Mont Megantic
(45.4500°N, 71.1500°W)
Time: 05:01:48
(UTC-05:00)

OTV 5 (USA 277) - Visible Passes

Search period start: 19 February 2018 00:00
Search period end: 01 March 2018 00:00
Orbit: 404 x 417 km, 43.0° (Epoch: 07 September)

Date Brightness Start Highest point End Pass type
(mag) Time Alt. Az. Time Alt. Az. Time Alt. Az.
20 Feb ? 05:24:49 10° S 05:26:41 14° SSE 05:28:32 10° ESE visible
22 Feb ? 05:19:05 12° SSW 05:21:31 26° SSE 05:24:20 10° E visible
23 Feb ? 04:30:35 20° SSE 04:30:36 20° SSE 04:33:04 10° ESE visible
24 Feb ? 05:14:44 21° SW 05:16:30 41° SSE 05:19:38 10° E visible
25 Feb ? 04:26:04 31° SE 04:26:04 31° SE 04:28:32 10° E visible
25 Feb ? 05:59:21 10° WSW 06:02:35 56° S 06:05:50 10° E visible
26 Feb ? 03:37:22 10° E 03:37:22 10° E 03:37:23 10° E visible
26 Feb ? 05:10:07 28° WSW 05:11:34 54° S 05:14:47 10° E visible
27 Feb ? 04:21:23 37° SE 04:21:23 37° SE 04:23:44 10° E visible
27 Feb ? 05:54:28 10° W 05:57:40 49° S 06:00:52 10° ESE visible
28 Feb ? 03:32:38 10° E 03:32:38 10° E 03:32:41 10° E visible
28 Feb ? 05:05:23 31° WSW 05:06:39 54° S 05:09:53 10° ESE visible
